Tracking 19242 objects as of 16-Aug-2018
HD Live streaming from Space Station
objects crossing your sky now

SL-12 DEB

Track SL-12 DEB now!
10-day predictions


NORAD ID: 39804
Int'l Code: 2008-046R
Perigee: 540.2 km
Apogee: 18,525.1 km
Inclination: 65.8 °
Period: 332.7 minutes
Semi major axis: 15903 km
RCS: 0.0341 m2 (small)
Launch date: September 25, 2008
Source: Commonwealth of Independent States (former USSR) (CIS)
Launch site: TYURATAM MISSILE AND SPACE COMPLEX (TTMTR)

Note: This is SATELLITE DEBRIS
aabbcc
Your satellite tracking list
Your tracking list is empty




NASA's NSSDC Master Catalog

Two Line Element Set (TLE):
1 39804U 08046R   18224.24252741 +.00000024 +00000-0 +27754-3 0  9990
2 39804 065.8497 326.5665 5654345 346.8003 003.0517 04.32870442066309
Source of the keplerian elements: AFSPC